Location: Eurasberg
(48.3353°N, 11.0839°E)
Time: 09:17:02
(UTC+00:00)

RUBIN 8/PSLV - Pass Details

Date: 18 January 2026
Orbit: 593 x 628 km, 98.1° (Epoch: 17 February)

Event Time Altitude Azimuth Distance (km) Brightness Sun altitude
Rises 05:13:26 0° 11° (N) 2,845 8.0 -17.2°
Reaches altitude 10° 05:15:37 10° 9° (N) 1,939 7.1 -16.9°
Maximum altitude 05:19:47 68° 287° (WNW) 646 4.4 -16.2°
Drops below altitude 10° 05:23:57 10° 205° (SSW) 1,932 7.0 -15.5°
Sets 05:26:07 0° 203° (SSW) 2,834 7.9 -15.2°
